Location: Dixon
(37.9953°N, 92.0959°W)
Time: 00:29:48
(UTC+00:00)

Hubble Space Telescope - Pass Details

Date: 11 December 2025
Orbit: 479 x 481 km, 28.5° (Epoch: 16 January)

Event Time Altitude Azimuth Distance (km) Brightness Sun altitude
Rises 00:59:41 0° 239° (WSW) 2,524 5.3 -25.0°
Reaches altitude 10° 01:02:22 10° 220° (SW) 1,645 3.9 -25.5°
Enters shadow 01:04:09 17° 193° (SSW) 1,269 2.9 -25.9°
